Hourly Weather Roundup
Issued by NWS Central Illinois

Home | Current Version | Previous Version | Text Only | Print | Product List | Glossary On
Versions: 1 2 3 4 5 6 7 8 9 10 11 12 13 14 15 16 17 18 19 20 21 22 23 24 25 26 27 28 29 30 31 32 33 34 35 36 37 38 39 40 41 42 43 44 45 46 47 48 49 50
000
NZUS43 KILX 251210
HWRILX

AREA WEATHER ROUNDUP
NATIONAL WEATHER SERVICE, LINCOLN IL
700 AM CDT FRI JUL 25 2014


CITY           SKY/WX    TMP DP  RH WIND       PRES   REMARKS
BLOOMINGTON    CLOUDY    58  54  86 SE3       30.10R
CHAMPAIGN      CLOUDY    57  55  93 E3        30.07S
6HR MIN TEMP:  55; 6HR MAX TEMP:  59;

DECATUR        CLOUDY    59  56  89 CALM      30.08R
6HR MIN TEMP:  54; 6HR MAX TEMP:  61;

FLORA          SUNNY     57  55  94 CALM      30.08R
6HR MIN TEMP:  53; 6HR MAX TEMP:  60;

GALESBURG      CLOUDY    61  57  88 CALM      30.09R
JACKSONVILLE   CLOUDY    62  58  87 E3        30.08R
6HR MIN TEMP:  58; 6HR MAX TEMP:  63;

LACON          CLOUDY    59  55  86 E3        30.08R
6HR MIN TEMP:  56; 6HR MAX TEMP:  60;

LAWRENCEVILLE  SUNNY     60  58  92 NE3       30.08S FOG
6HR MIN TEMP:  56; 6HR MAX TEMP:  61;

LITCHFIELD     PTSUNNY   60  57  90 SE5       30.06R
$$


CITY           SKY/WX    TMP DP  RH WIND       PRES   REMARKS
LINCOLN        CLOUDY    59  56  91 CALM      30.06R
6HR MIN TEMP:  56; 6HR MAX TEMP:  61;

MACOMB         CLOUDY    59  58  97 CALM      30.10R
MATTOON        PTSUNNY   60  56  86 SE3       30.07R
6HR MIN TEMP:  56; 6HR MAX TEMP:  61;

MT CARMEL AP   SUNNY     57  55  94 CALM      30.07S
OLNEY-NOBLE AP MOSUNNY   59  57  94 CALM      30.08R
PARIS          PTSUNNY   56  56  99 CALM      30.09R
6HR MIN TEMP:  51; 6HR MAX TEMP:  56;

PEORIA         CLOUDY    64  55  72 CALM      30.09R
6HR MIN TEMP:  63; 6HR MAX TEMP:  66;

PONTIAC        CLOUDY    57  57 100 CALM      30.08R
RANTOUL        CLOUDY    58  54  85 CALM      30.09R
6HR MIN TEMP:  57; 6HR MAX TEMP:  62;

ROBINSON       SUNNY     58  57  98 CALM      30.09R FOG
6HR MIN TEMP:  53; 6HR MAX TEMP:  58;

SPRINGFIELD    CLOUDY    61  58  90 CALM      30.08R
6HR MIN TEMP:  57; 6HR MAX TEMP:  61;

TAYLORVILLE    CLOUDY    59  55  88 SE6       30.07R
$$

...REGIONAL REPORTS...


CITY           SKY/WX    TMP DP  RH WIND       PRES   REMARKS
CHICAGO O`HARE CLOUDY    62  48  60 W9        30.09R
KANKAKEE       CLOUDY    57  54  91 CALM      30.08S
MOLINE         LGT RAIN  62  58  86 CALM      30.09R
MOUNT VERNON   PTSUNNY   57  54  88 CALM      30.07R
PITTSFIELD     CLOUDY    61  57  87 CALM      30.07R
QUINCY         CLOUDY    63  56  78 E5        30.06R
ROCKFORD       LGT RAIN  60  52  74 S5        30.11R
$$


CITY           SKY/WX    TMP DP  RH WIND       PRES   REMARKS
BURLINGTON     LGT RAIN  63  58  83 SE3       30.06R
CEDAR RAPIDS   LGT RAIN  61  59  93 SE12      30.01F FOG
DES MOINES     LGT RAIN  66  60  81 E13       29.94F
KIRKSVILLE     CLOUDY    64  55  72 E10       29.98S
OTTUMWA        HVY RAIN  61  59  93 N7        30.09R FOG
ST LOUIS       CLOUDY    69  57  65 S7        30.05R
$$


CITY           SKY/WX    TMP DP  RH WIND       PRES   REMARKS
TERRE HAUTE    MOSUNNY   57  54  89 E3        30.08S
EVANSVILLE     SUNNY     61  56  83 CALM      30.08S
INDIANAPOLIS   PTSUNNY   60  56  86 SE5       30.08F
LAFAYETTE      PTSUNNY   57  55  93 CALM      30.07F
MADISON        CLOUDY    63  54  72 SW6       30.05S
MILWAUKEE      PTSUNNY   62  47  57 SW10      30.07R
$$





USA.gov is the U.S. government's official web portal to all federal, state and local government web resources and services.